Location: *
(12.5665°N, 8.3471°E)
Time: 07:24:15
(UTC+00:00)

Cosmos 2266 Rocket - Pass Details

Date: 23 September 2019
Orbit: 935 x 1007 km, 82.9° (Epoch: 22 October)

Event Time Altitude Azimuth Distance (km) Brightness Sun altitude
Rises 03:48:18 0° 194° (SSW) 3,650 6.8 -22.1°
Reaches altitude 10° 03:50:53 10° 199° (SSW) 2,693 6.1 -21.5°
Maximum altitude 03:56:50 52° 274° (W) 1,171 4.0 -20.1°
Drops below altitude 10° 04:02:42 10° 350° (N) 2,652 6.2 -18.6°
Sets 04:05:14 0° 355° (N) 3,591 7.0 -18.0°
